Lowell, ID

11:19 AM MDT on June 25, 2017 (GMT -0600)
Lowell

Weather History for KP69 - March, 2014

Change the Weather History Date:

Sunday, March 16, 2014

  Actual Average Record
Temperature  
Mean Temperature 43 °F -  
Max Temperature 54 °F 52 °F 61 °F (2006)
Min Temperature 32 °F 31 °F 30 °F (2002)
Degree Days  
Heating Degree Days 22    
Moisture  
Dew Point 35 °F    
Average Humidity 82    
Maximum Humidity 96    
Minimum Humidity 53    
Precipitation  
Precipitation 0.00 in - - ()
Sea Level Pressure  
Sea Level Pressure 30.17 in    
Wind  
Wind Speed 4 mph (North)    
Max Wind Speed 7 mph    
Max Gust Speed -    
Averages and records for this station are not official NWS values.
T = Trace of Precipitation, MM = Missing Value Source: NWS Daily Summary

Daily Weather History Graph

Daily Weather History Graph

Search for Another Location

Airport or City:

Trip Planner

Search our weather history database for the weather conditions in past years. The results will help you decide how hot, cold, wet, or windy it might be!

Date:

Astronomy

Mar. 16, 2014 Rise Set
Actual Time 7:52 AM MDT 7:49 PM MDT
Civil Twilight 7:22 AM MDT 8:18 PM MDT
Nautical Twilight 6:47 AM MDT 8:53 PM MDT
Astronomical Twilight 6:12 AM MDT 9:29 PM MDT
Moon 8:13 PM MDT (3/16) 7:36 AM MDT (3/16)
Length of Visible Light 12h 56m
Length of Day
11h 56m
Full, 100% of the Moon is Illuminated
Mar 16
Full
Mar 23
Last Quarter
Mar 30
New
Apr 7
First Quarter
Apr 15
Full

Hourly Weather History & Observations

Time (MDT) Temp. Windchill Dew Point Humidity Pressure Visibility Wind Dir Wind Speed Gust Speed Precip Events Conditions
12:52 AM 36.0 °F 32.1 °F 34.0 °F 93% 30.40 in - North 4.6 mph - N/A   Unknown
1:52 AM 35.1 °F 31.0 °F 33.1 °F 92% 30.39 in - North 4.6 mph - N/A   Unknown
2:52 AM 35.1 °F 29.3 °F 33.1 °F 92% 30.40 in - North 6.9 mph - N/A   Unknown
3:52 AM 34.0 °F 29.8 °F 32.0 °F 92% 30.40 in - Variable 4.6 mph - N/A   Unknown
4:52 AM 33.1 °F 28.7 °F 30.9 °F 92% 30.38 in - NNW 4.6 mph - N/A   Unknown
5:52 AM 33.1 °F 28.7 °F 30.9 °F 92% 30.35 in - Variable 4.6 mph - N/A   Unknown
6:52 AM 32.0 °F 27.5 °F 30.9 °F 96% 30.35 in - North 4.6 mph - N/A   Unknown
7:52 AM 32.0 °F 26.4 °F 30.0 °F 92% 30.36 in - NNW 5.8 mph - N/A   Unknown
8:52 AM 33.1 °F 30.0 °F 30.9 °F 92% 30.35 in - Variable 3.5 mph - N/A   Unknown
9:52 AM 36.0 °F 33.3 °F 32.0 °F 86% 30.34 in - Variable 3.5 mph - N/A   Unknown
10:52 AM 39.9 °F 37.8 °F 33.1 °F 77% 30.30 in - Variable 3.5 mph - N/A   Unknown
11:52 AM 44.1 °F - 34.0 °F 68% 30.26 in - Calm Calm - N/A   Unknown
12:52 PM 48.0 °F - 35.1 °F 61% 30.20 in - North 3.5 mph - N/A   Unknown
1:52 PM 52.0 °F - 37.0 °F 57% 30.14 in - Calm Calm - N/A   Unknown
2:52 PM 54.0 °F - 37.0 °F 53% 30.08 in - Calm Calm - N/A   Unknown
3:52 PM 53.1 °F - 41.0 °F 64% 30.05 in - Calm Calm - N/A   Unknown
4:52 PM 52.0 °F - 43.0 °F 71% 30.01 in - Calm Calm - N/A   Unknown
5:52 PM 48.9 °F - 41.0 °F 74% 29.97 in - Calm Calm - N/A   Unknown
6:52 PM 45.0 °F 43.5 °F 39.9 °F 82% 29.95 in - North 3.5 mph - N/A   Unknown
7:52 PM 43.0 °F - 37.9 °F 82% 29.92 in - Calm Calm - N/A   Unknown
8:52 PM 42.1 °F 40.2 °F 39.0 °F 89% 29.88 in - North 3.5 mph - N/A   Unknown
9:52 PM 41.0 °F 39.0 °F 37.9 °F 89% 29.86 in - NNW 3.5 mph - N/A   Unknown
10:52 PM 39.0 °F 36.8 °F 37.0 °F 93% 29.85 in - NNW 3.5 mph - N/A   Unknown
11:52 PM 37.9 °F 35.5 °F 36.0 °F 93% 29.81 in - Variable 3.5 mph - N/A   Unknown